| time (UTC) | temp F | wind direction | speed MPH | gust MPH | rain 1hr in | rain 24hr in | rain mn in | humidity % | barometer mb |
| 20260504223039 | 64 | 184 | 3.0 | 4.0 | 0.00 | 0.00 | 0.00 | 58 | 1019.3 |
| 20260504221538 | 65 | 166 | 3.0 | 5.0 | 0.00 | 0.00 | 0.00 | 58 | 1019.5 |
| 20260504220035 | 65 | 212 | 3.0 | 4.0 | 0.00 | 0.00 | 0.00 | 57 | 1019.4 |
| 20260504214539 | 64 | 157 | 0.0 | 1.0 | 0.00 | 0.00 | 0.00 | 59 | 1019.4 |
| 20260504213034 | 64 | 210 | 1.0 | 4.0 | 0.00 | 0.00 | 0.00 | 59 | 1019.3 |
| 20260504211533 | 65 | 246 | 3.0 | 6.0 | 0.00 | 0.00 | 0.00 | 58 | 1019.3 |
| 20260504210032 | 65 | 245 | 3.0 | 7.0 | 0.00 | 0.00 | 0.00 | 57 | 1019.3 |
| 20260504204611 | 65 | 238 | 3.0 | 7.0 | 0.00 | 0.00 | 0.00 | 55 | 1019.3 |
| 20260504203032 | 66 | 205 | 1.0 | 5.0 | 0.00 | 0.00 | 0.00 | 53 | 1019.4 |
| 20260504201531 | 67 | 236 | 1.0 | 5.0 | 0.00 | 0.00 | 0.00 | 49 | 1019.3 |
| 20260504200035 | 68 | 229 | 1.0 | 5.0 | 0.00 | 0.00 | 0.00 | 46 | 1019.2 |
| 20260504194531 | 68 | 193 | 3.0 | 6.0 | 0.00 | 0.00 | 0.00 | 44 | 1019.1 |
| 20260504193028 | 69 | 169 | 3.0 | 8.0 | 0.00 | 0.00 | 0.00 | 43 | 1019.1 |
| 20260504191529 | 69 | 148 | 1.0 | 5.0 | 0.00 | 0.00 | 0.00 | 42 | 1018.9 |
| 20260504190033 | 69 | 179 | 3.0 | 8.0 | 0.00 | 0.00 | 0.00 | 41 | 1018.9 |
| 20260504184526 | 70 | 197 | 3.0 | 8.0 | 0.00 | 0.00 | 0.00 | 39 | 1018.9 |
| 20260504183028 | 70 | 182 | 1.0 | 5.0 | 0.00 | 0.00 | 0.00 | 39 | 1018.8 |
| 20260504181525 | 70 | 179 | 2.0 | 6.0 | 0.00 | 0.00 | 0.00 | 39 | 1018.7 |
| 20260504180025 | 70 | 167 | 1.0 | 6.0 | 0.00 | 0.00 | 0.00 | 39 | 1018.7 |
| 20260504174524 | 70 | 170 | 3.0 | 6.0 | 0.00 | 0.00 | 0.00 | 40 | 1018.7 |
| 20260504173023 | 70 | 193 | 3.0 | 10.0 | 0.00 | 0.00 | 0.00 | 39 | 1018.7 |
| 20260504171536 | 70 | 178 | 5.0 | 9.0 | 0.00 | 0.00 | 0.00 | 40 | 1018.6 |
| 20260504081541 | 65 | 76 | 5.0 | 9.0 | 0.00 | 0.00 | 0.00 | 59 | 1021.3 |
| 20260504050011 | 59 | 262 | 2.0 | 5.0 | 0.00 | 0.00 | 0.00 | 66 | 1020.2 |
| 20260504044510 | 58 | 230 | 3.0 | 7.0 | 0.00 | 0.00 | 0.00 | 67 | 1020.0 |
| 20260504043004 | 57 | 252 | 2.0 | 7.0 | 0.00 | 0.00 | 0.00 | 70 | 1019.9 |
| 20260504041505 | 55 | 284 | 1.0 | 7.0 | 0.00 | 0.00 | 0.00 | 72 | 1019.8 |
| 20260504040003 | 54 | 233 | 2.0 | 6.0 | 0.00 | 0.00 | 0.00 | 74 | 1019.8 |
| 20260504034503 | 54 | 241 | 2.0 | 6.0 | 0.00 | 0.00 | 0.00 | 75 | 1019.8 |
| 20260504033059 | 54 | 264 | 1.0 | 6.0 | 0.00 | 0.00 | 0.00 | 74 | 1019.7 |
| 20260504031559 | 54 | 226 | 1.0 | 5.0 | 0.00 | 0.00 | 0.00 | 74 | 1019.6 |
| 20260504030058 | 54 | 212 | 2.0 | 6.0 | 0.00 | 0.00 | 0.00 | 73 | 1019.6 |
| 20260504024558 | 54 | 260 | 2.0 | 6.0 | 0.00 | 0.00 | 0.00 | 73 | 1019.6 |
| 20260504023056 | 53 | 262 | 3.0 | 6.0 | 0.00 | 0.00 | 0.00 | 73 | 1019.7 |
| 20260504021554 | 53 | 201 | 2.0 | 8.0 | 0.00 | 0.00 | 0.00 | 73 | 1019.7 |
| 20260504020053 | 54 | 285 | 3.0 | 6.0 | 0.00 | 0.00 | 0.00 | 72 | 1019.6 |
| 20260504014602 | 54 | 275 | 3.0 | 7.0 | 0.00 | 0.00 | 0.00 | 71 | 1019.7 |
| 20260504013052 | 55 | 238 | 2.0 | 5.0 | 0.00 | 0.00 | 0.00 | 70 | 1019.7 |
| 20260504011552 | 55 | 263 | 1.0 | 5.0 | 0.00 | 0.00 | 0.00 | 71 | 1019.7 |
| 20260504010051 | 55 | 288 | 3.0 | 6.0 | 0.00 | 0.00 | 0.00 | 70 | 1019.7 |
| 20260504004547 | 54 | 287 | 1.0 | 5.0 | 0.00 | 0.00 | 0.00 | 71 | 1019.7 |
| 20260504003050 | 55 | 156 | 2.0 | 6.0 | 0.00 | 0.00 | 0.00 | 70 | 1019.7 |
| 20260504001544 | 55 | 264 | 2.0 | 5.0 | 0.00 | 0.00 | 0.00 | 70 | 1019.8 |
| 20260504000043 | 55 | 273 | 1.0 | 5.0 | 0.00 | 0.00 | 0.00 | 69 | 1019.8 |
| 20260503234546 | 55 | 198 | 0.0 | 4.0 | 0.00 | 0.00 | 0.00 | 69 | 1019.8 |
| 20260503233036 | 56 | 267 | 1.0 | 4.0 | 0.00 | 0.00 | 0.00 | 69 | 1020.0 |
| 20260503231536 | 56 | 254 | 0.0 | 5.0 | 0.00 | 0.00 | 0.00 | 69 | 1020.0 |
| 20260503230040 | 56 | 267 | 0.0 | 5.0 | 0.00 | 0.00 | 0.00 | 68 | 1020.1 |
| 20260503224534 | 56 | 257 | 1.0 | 4.0 | 0.00 | 0.00 | 0.00 | 68 | 1020.0 |